[[{"header":{"parameterUnit":"m.s-1","parameterCategory":1,"la1":30.2991,"la2":30.254,"lo1":-89.0895,"lo2":-89.0444,"dy":0.0017,"dx":0.0017,"nx":28,"ny":28,"refTime":"2024-04-01T09:00:00:Z","depth":0,"parameterNumber":2,"parameterNumberName":"U-component_of_WINDS"},"data":[0,0,0,0,0,0,0,0,0,0,0,0,0,0,0,0,0,0,0,0,0,0,0,0,0,0,0,0,0,0,0,0,0,0,0,0,0,0,0,0,0,0,0,0,0,0,0,0,0,0,0,0,0,0,0,0,0,0,-0.2905,-0.2906,0,-0.3037,-0.3039,-0.304,-0.3121,-0.3121,-0.3122,-0.3122,-0.3255,-0.3258,-0.3261,0,0,0,0,0,0,0,0,0,0,0,0,0,-0.2722,-0.2725,-0.2905,-0.2907,-0.2908,-0.3037,-0.3039,-0.304,-0.3121,-0.3121,-0.3122,-0.3122,-0.3254,-0.3258,-0.3261,0,0,0,0,0,0,0,0,0,0,0,0,0,-0.2822,-0.2726,-0.2905,-0.2964,-0.2971,-0.3036,-0.3039,-0.3041,-0.3121,-0.3121,-0.3122,-0.3123,-0.3253,-0.3257,-0.3262,-0.3279,0,0,-0.3276,-0.3278,0,0,0,0,0,0,0,0,-0.2816,-0.2829,-0.2954,-0.296,-0.2967,-0.3063,-0.3023,-0.312,-0.3121,-0.3064,-0.3122,-0.3123,-0.3191,-0.32,-0.3224,-0.3285,-0.329,-0.3277,-0.328,-0.3282,-0.3283,0,0,0,0,0,0,0,-0.2809,-0.2824,-0.2957,-0.2955,-0.2964,-0.2984,-0.2999,-0.3042,-0.3122,-0.3069,-0.3075,-0.3089,-0.3194,-0.3219,-0.3227,-0.3292,-0.3277,-0.3281,-0.3284,-0.3286,-0.3375,-0.3375,0,0,0,0,0,0,-0.2793,-0.2817,-0.2953,-0.2961,-0.2892,-0.2986,-0.3003,-0.3032,-0.3122,-0.3136,-0.3089,-0.3093,-0.3211,-0.3222,-0.3232,-0.3258,-0.3282,-0.3286,-0.3289,-0.3375,-0.3375,-0.3374,0,0,0,0,0,0,-0.2789,-0.2804,-0.2948,-0.2891,-0.2911,-0.2989,-0.302,-0.3034,-0.3059,-0.3137,-0.3151,-0.3099,-0.3212,-0.3226,-0.3267,-0.3264,-0.3288,-0.3293,-0.3376,-0.3375,-0.3375,-0.331,0,0,0,0,0,0,-0.2783,-0.2802,-0.2809,-0.2891,-0.2913,-0.298,-0.302,-0.3036,-0.3067,-0.3073,-0.3151,-0.3164,-0.3213,-0.3259,-0.3272,-0.3271,-0.3296,-0.3377,-0.3376,-0.3375,-0.3312,-0.3307,-0.3302,0,0,0,0,0,-0.2776,-0.2785,-0.2809,-0.2825,-0.2924,-0.298,-0.2993,-0.305,-0.3066,-0.3074,-0.3125,-0.3161,-0.3263,-0.3263,-0.3277,-0.3278,-0.3377,-0.3376,-0.3375,-0.3315,-0.3308,-0.3302,0,0,0,0,0,0,-0.2701,-0.2797,-0.2825,-0.286,-0.2911,-0.2993,-0.3005,-0.3041,-0.3087,-0.3091,-0.316,-0.3177,-0.3211,-0.3249,-0.3248,-0.33,-0.3324,-0.3326,-0.3273,-0.3267,-0.3262,-0.3252,-0.33,0,0,0,0,0,-0.2688,-0.2726,-0.2808,-0.2831,-0.2855,-0.2925,-0.2952,-0.2992,-0.3047,-0.3069,-0.3122,-0.3174,-0.3218,-0.3245,-0.3289,-0.3319,-0.3337,-0.3326,-0.3321,-0.3316,-0.3317,-0.3336,-0.3332,-0.3371,-0.3371,-0.3371,0,0,-0.2663,-0.272,-0.2739,-0.2817,-0.2862,-0.2899,-0.2943,-0.298,-0.3008,-0.3074,-0.3117,-0.3158,-0.322,-0.3255,-0.3274,-0.3288,-0.3311,-0.3315,-0.3311,-0.3314,-0.3335,-0.3331,-0.3328,-0.337,-0.337,-0.3371,0,0,-0.2635,-0.2682,-0.2707,-0.2751,-0.2818,-0.2865,-0.287,-0.2948,-0.2978,-0.3022,-0.3072,-0.3107,-0.318,-0.3223,-0.3254,-0.3245,-0.328,-0.3257,-0.323,-0.3248,-0.3244,-0.3242,-0.3239,-0.3237,-0.3258,-0.3257,-0.3257,0,-0.2594,-0.2653,-0.2715,-0.275,-0.2783,-0.2845,-0.2871,-0.2911,-0.2988,-0.3009,-0.3025,-0.312,-0.3166,-0.3213,-0.321,-0.3234,-0.3243,-0.3248,-0.324,-0.3238,-0.3237,-0.3235,-0.3233,-0.3254,-0.3254,-0.3255,-0.3255,0,-0.26,-0.2639,-0.2651,-0.2726,-0.276,-0.279,-0.2857,-0.2885,-0.2922,-0.2967,-0.3011,-0.307,-0.3127,-0.3142,-0.3178,-0.3194,-0.3201,-0.3227,-0.3253,-0.3229,-0.3228,-0.3227,-0.3249,-0.3251,-0.3252,-0.3252,0,0,-0.2526,-0.2636,-0.2639,-0.2674,-0.2754,-0.2785,-0.2819,-0.2876,-0.2898,-0.295,-0.298,-0.3042,-0.3067,-0.3102,-0.3144,-0.316,-0.3149,-0.3185,-0.3187,-0.3176,-0.3171,-0.315,-0.3148,-0.3174,-0.3174,-0.3174,-0.3166,0,-0.251,-0.2573,-0.2631,-0.2672,-0.271,-0.2771,-0.28,-0.2852,-0.2896,-0.2934,-0.2982,-0.3025,-0.3055,-0.3077,-0.3095,-0.3146,-0.3149,-0.3148,-0.3201,-0.3203,-0.3183,-0.3147,-0.3125,-0.3114,-0.3166,-0.3166,-0.3166,0,-0.2499,-0.2549,-0.2595,-0.2671,-0.2689,-0.2714,-0.2772,-0.2808,-0.2869,-0.2899,-0.294,-0.2984,-0.3023,-0.3045,-0.3099,-0.3097,-0.3122,-0.3151,-0.3152,-0.3158,-0.3182,-0.3152,-0.3112,-0.311,-0.3165,-0.3165,-0.3165,0,-0.244,-0.2519,-0.2558,-0.2586,-0.2676,-0.2692,-0.2731,-0.2792,-0.2823,-0.2874,-0.2895,-0.2949,-0.2978,-0.3019,-0.3077,-0.3088,-0.3125,-0.3152,-0.3151,-0.3149,-0.3155,-0.3154,-0.3118,-0.3172,-0.3172,-0.3172,-0.3172,0,-0.2415,-0.2441,-0.2533,-0.2556,-0.2586,-0.2653,-0.2682,-0.2725,-0.278,-0.2812,-0.2869,-0.2898,-0.2974,-0.3012,-0.3058,-0.3095,-0.3108,-0.3134,-0.3146,-0.3129,-0.3125,-0.3146,-0.3148,-0.3172,-0.3172,-0.3172,-0.3172,0,-0.2355,-0.2417,-0.2463,-0.2545,-0.2567,-0.2585,-0.2656,-0.2681,-0.2729,-0.277,-0.2783,-0.2857,-0.2906,-0.2969,-0.3037,-0.3068,-0.31,-0.3118,-0.3079,-0.3086,-0.3082,-0.3081,-0.3057,-0.3057,-0.3111,-0.311,-0.311,0,-0.2334,-0.2356,-0.2441,-0.2467,-0.2504,-0.2546,-0.2579,-0.2646,-0.2677,-0.2748,-0.2765,-0.2818,-0.2864,-0.2939,-0.2999,-0.3051,-0.3071,-0.306,-0.3079,-0.3062,-0.3071,-0.3069,-0.3071,-0.3054,-0.3053,-0.3052,-0.3052,0,-0.2291,-0.2322,-0.2367,-0.2423,-0.2461,-0.2508,-0.2558,-0.2576,-0.2654,-0.2687,-0.2738,-0.2773,-0.2844,-0.2896,-0.2957,-0.2997,-0.3037,-0.3045,-0.3048,-0.303,-0.3006,-0.3019,-0.3065,-0.3045,-0.3046,-0.3046,-0.3046,-0.3047,-0.225,-0.2272,-0.2336,-0.2385,-0.243,-0.2475,-0.2503,-0.2555,-0.2599,-0.2662,-0.2699,-0.2748,-0.281,-0.2896,-0.2934,-0.2974,-0.2989,-0.2993,-0.2994,-0.2993,-0.2988,-0.3001,-0.2985,-0.2986,-0.2986,-0.2986,-0.2986,0,-0.221,-0.2255,-0.2299,-0.2367,-0.2406,-0.2442,-0.25,-0.2529,-0.2572,-0.2626,-0.2671,-0.273,-0.2782,-0.2846,-0.2902,-0.2922,-0.2942,-0.2934,-0.2933,-0.2941,-0.2971,-0.2963,-0.2917,-0.2917,-0.2917,-0.2917,-0.2917,-0.2917,-0.2194,-0.2233,-0.2271,-0.2334,-0.2378,-0.2428,-0.2458,-0.25,-0.2544,-0.2608,-0.2651,-0.2693,-0.2752,-0.2813,-0.2862,-0.288,-0.2897,-0.2884,-0.2907,-0.2933,-0.2939,-0.2945,-0.2938,-0.2887,-0.2887,-0.2875,-0.2874,-0.2874]},{"header":{"parameterUnit":"m.s-1","parameterCategory":1,"la1":30.2991,"la2":30.254,"lo1":-89.0895,"lo2":-89.0444,"dy":0.0017,"dx":0.0017,"nx":28,"ny":28,"refTime":"2024-04-01T09:00:00:Z","depth":0,"parameterNumber":3,"parameterNumberName":"V-component_of_WINDS"},"data":[0,0,0,0,0,0,0,0,0,0,0,0,0,0,0,0,0,0,0,0,0,0,0,0,0,0,0,0,0,0,0,0,0,0,0,0,0,0,0,0,0,0,0,0,0,0,0,0,0,0,0,0,0,0,0,0,0,0,5.7686,5.7688,0,5.7814,5.7815,5.7816,5.7784,5.7782,5.7779,5.7777,5.7909,5.7915,5.7921,0,0,0,0,0,0,0,0,0,0,0,0,0,5.7418,5.7423,5.7686,5.7688,5.7689,5.7813,5.7815,5.7817,5.7785,5.7782,5.7779,5.7776,5.7908,5.7914,5.7921,0,0,0,0,0,0,0,0,0,0,0,0,0,5.7539,5.7425,5.7686,5.7688,5.769,5.7813,5.7815,5.7817,5.7785,5.7782,5.7778,5.7774,5.7905,5.7914,5.7922,5.8052,0,0,5.7949,5.7953,0,0,0,0,0,0,0,0,5.7532,5.7549,5.7686,5.7688,5.769,5.7779,5.7769,5.7896,5.7786,5.7749,5.7777,5.7773,5.7869,5.7881,5.7913,5.8058,5.8064,5.795,5.7955,5.7959,5.7962,0,0,0,0,0,0,0,5.7524,5.7543,5.7736,5.7688,5.7691,5.7684,5.7697,5.7793,5.7829,5.7752,5.775,5.7765,5.787,5.7905,5.7916,5.8066,5.795,5.7958,5.7963,5.7966,5.8327,5.8331,0,0,0,0,0,0,5.7514,5.7536,5.7732,5.774,5.76,5.7692,5.7706,5.7754,5.7828,5.7835,5.7769,5.7764,5.7891,5.7906,5.792,5.8079,5.7959,5.7967,5.7972,5.8322,5.8327,5.8332,0,0,0,0,0,0,5.7508,5.7531,5.7727,5.7638,5.7662,5.77,5.7755,5.7759,5.7794,5.784,5.7846,5.7798,5.7889,5.7908,5.802,5.8083,5.7971,5.7979,5.8317,5.8324,5.833,5.8396,0,0,0,0,0,0,5.75,5.7529,5.7578,5.7639,5.7667,5.7824,5.7758,5.7764,5.7809,5.7803,5.7869,5.7876,5.7888,5.8007,5.8029,5.8093,5.7986,5.8312,5.832,5.8328,5.8388,5.8404,5.8417,0,0,0,0,0,5.7491,5.7591,5.7581,5.7605,5.7729,5.7828,5.7844,5.7854,5.7814,5.7864,5.7894,5.7874,5.8072,5.8019,5.8043,5.8111,5.8308,5.8318,5.8327,5.8382,5.8401,5.8417,0,0,0,0,0,0,5.7537,5.7599,5.7588,5.7711,5.7764,5.7822,5.7885,5.7873,5.7939,5.7932,5.7942,5.7957,5.8072,5.8102,5.8042,5.8242,5.8184,5.8199,5.8218,5.8236,5.825,5.8241,5.7993,0,0,0,0,0,5.7561,5.7635,5.7686,5.779,5.7817,5.7847,5.789,5.7894,5.7949,5.7972,5.801,5.8065,5.8141,5.819,5.8261,5.8392,5.8407,5.8451,5.8465,5.8477,5.849,5.8565,5.8586,5.8364,5.8364,5.8364,0,0,5.7612,5.7655,5.7702,5.78,5.7842,5.792,5.7866,5.795,5.8009,5.7985,5.8093,5.8123,5.8186,5.8309,5.8365,5.8338,5.8555,5.8489,5.8498,5.8505,5.8577,5.8598,5.8617,5.837,5.8369,5.8368,0,0,5.7745,5.7785,5.7877,5.792,5.7984,5.8003,5.8025,5.8086,5.8105,5.8214,5.8198,5.8269,5.8397,5.8443,5.8483,5.8637,5.8622,5.866,5.8736,5.8808,5.8826,5.8841,5.8899,5.8919,5.8673,5.8673,5.8673,0,5.7801,5.7917,5.7926,5.8013,5.8057,5.8039,5.8134,5.8175,5.826,5.8292,5.826,5.8422,5.8463,5.8598,5.8636,5.8668,5.8695,5.8653,5.8822,5.8838,5.8853,5.8908,5.8929,5.8677,5.8677,5.8676,5.8676,0,5.7984,5.8065,5.8132,5.8214,5.8267,5.8357,5.838,5.8432,5.8432,5.8455,5.8568,5.8616,5.8699,5.8731,5.873,5.8867,5.8848,5.8819,5.8762,5.8878,5.893,5.8951,5.8684,5.8682,5.8681,5.868,0,0,5.8149,5.8236,5.8261,5.83,5.837,5.8433,5.8523,5.8604,5.8649,5.8708,5.8786,5.8896,5.887,5.8916,5.8922,5.8985,5.9107,5.8949,5.895,5.8979,5.9263,5.9286,5.931,5.9097,5.9101,5.9104,5.9259,0,5.8291,5.8449,5.8461,5.8605,5.8681,5.8666,5.8745,5.8798,5.8822,5.8892,5.8919,5.8998,5.8957,5.8985,5.9047,5.9079,5.9165,5.9068,5.9171,5.9175,5.9158,5.9336,5.936,5.9504,5.9279,5.9282,5.9284,0,5.8477,5.8542,5.8694,5.8756,5.8788,5.8859,5.8935,5.9001,5.9061,5.9075,5.9127,5.9124,5.9219,5.9158,5.929,5.9224,5.9267,5.9289,5.9295,5.9307,5.9238,5.9355,5.9549,5.9572,5.9316,5.9313,5.9311,0,5.8585,5.8711,5.8819,5.8852,5.8926,5.8977,5.901,5.9066,5.9115,5.9181,5.9214,5.929,5.9333,5.9393,5.9412,5.9365,5.9545,5.9484,5.956,5.956,5.96,5.9598,5.9806,5.9624,5.9624,5.9624,5.9623,0,5.8743,5.8837,5.8869,5.8936,5.9041,5.9054,5.9159,5.9189,5.924,5.9313,5.9305,5.9374,5.9393,5.9467,5.9482,5.9591,5.961,5.9625,5.9628,5.9627,5.9625,5.9656,5.9648,5.9629,5.9628,5.9627,5.9626,0,5.8882,5.8907,5.9024,5.9086,5.9103,5.9179,5.9232,5.9297,5.932,5.9414,5.9436,5.9474,5.956,5.9585,5.9688,5.9698,5.9827,5.982,5.9807,5.9807,5.9883,5.9877,6.0121,6.0155,5.9949,5.9951,5.9952,0,5.8982,5.9055,5.9124,5.9173,5.9208,5.9286,5.9336,5.9352,5.9405,5.948,5.9537,5.9622,5.9691,5.983,5.9867,5.9947,5.9943,6.0023,5.9955,5.9952,5.9947,5.9944,5.9952,6.0036,6.0039,6.004,6.0042,0,5.9158,5.9167,5.9239,5.9317,5.9377,5.9438,5.9497,5.9538,5.9562,5.9622,5.9711,5.9764,5.987,5.9956,6.0037,6.0073,6.0063,6.0063,6.0085,6.0086,6.0076,6.0085,5.9844,6.0057,6.0056,6.0055,6.0054,6.0053,5.9282,5.9347,5.9407,5.9488,5.9534,5.9591,5.9656,5.9688,5.9762,5.9849,5.9854,5.9951,6.0012,6.012,6.016,6.0237,6.0213,6.0245,6.0253,6.0261,6.0269,6.0062,6.0251,6.0251,6.025,6.025,6.025,0,5.946,5.9498,5.9572,5.9656,5.9721,5.9705,5.977,5.9826,5.9911,5.9968,6.0037,6.014,6.0223,6.0268,6.0351,6.0404,6.0402,6.0426,6.0423,6.0432,6.0284,6.0257,6.0427,6.0427,6.0427,6.0427,6.0427,6.0426,5.956,5.9669,5.9686,5.9819,5.9857,5.9951,5.9991,6.0043,6.0089,6.0205,6.0274,6.0302,6.0356,6.0443,6.052,6.0531,6.0563,6.0591,6.0599,6.046,6.0442,6.0425,6.04,6.0597,6.0597,6.0742,6.0743,6.0744]}]]